Regional Weather Roundup
Issued by NWS Midland/Odessa, TX

Skip options and go directly to product.
Home | Oldest Version | Previous Version | Current Version | All | Graphics & Text | Save Text | Print | Product List | Glossary On

Skip product version selection by date and time.   
572
ASUS44 KMAF 040510
RWRMAF
MIDLAND AREA WEATHER ROUNDUP
NATIONAL WEATHER SERVICE MIDLAND TX
1200 AM CDT FRI SEP 04 2015

...IN SOUTHWEST TEXAS AND SOUTHEAST NEW MEXICO...

CITY           SKY/WX    TMP DP  RH WIND       PRES   REMARKS
ALPINE         PTCLDY    76  52  43 S9        30.11F
ANDREWS        FAIR      75  53  45 SE5       29.97F
ARTESIA        MOCLDY    81  48  32 SE12      29.97R
BIG SPRING     PTCLDY    80  54  39 SE12      29.96F
CARLSBAD       PTCLDY    83  47  28 S9        29.96R
DRYDEN           N/A     79  55  43 W6        29.91S
FORT STOCKTON  PTCLDY    77  51  40 S7        29.96S
GUAD PASS      MOCLDY    76  45  33 E8        30.14R
HOBBS            N/A     75  50  41 SE8       30.00S
MARFA          PTCLDY    72  50  46 E8        30.10S
MIDLAND AIRPK  CLEAR     83  52  34 SE9       29.96S
MIDLAND INTL   CLEAR     80  52  37 SE8       29.95S
ODESSA         CLEAR     81  50  33 S8        29.96F
PECOS          CLEAR     80  49  33 SE8       29.92S
PRESIDIO       MOCLDY    87  51  28 MISG      29.92R
SEMINOLE       PTCLDY    73  50  45 S3        29.99S
SNYDER         PTCLDY    77  57  50 SE7       29.95S
WINK           PTCLDY    79  52  38 S6        29.93R
$$
...OTHER STATIONS IN TEXAS...

CITY           SKY/WX    TMP DP  RH WIND       PRES   REMARKS
ABILENE        CLEAR     78  63  59 SE10      29.93S
AMARILLO       CLOUDY    80  55  42 S16       29.98R
AUSTIN         PTCLDY    77  71  82 SE5       29.90R
BROWNSVILLE    CLEAR     81  77  88 SE8       29.88R
CORPUS CHRISTI PTCLDY    82  75  79 SE9       29.87S
DALLAS FTW     PTCLDY    84  67  56 SE12      29.89S
DEL RIO        CLEAR     85  63  47 E10       29.85S
EL PASO        CLOUDY    83  53  35 W9        30.00S
HOUSTON INT    PTCLDY    77  74  90 SE5       29.90S
LUBBOCK        MOCLDY    74  54  49 S10       29.98S
SAN ANGELO     MOCLDY    77  57  50 SE5       29.92R
SAN ANTONIO    MOCLDY    80  71  74 SE9       29.91R
WACO           CLEAR     83  69  62 S10       29.89S
WICHITA FALLS  NOT AVBL
$$
...OTHER LOCATIONS IN NEW MEXICO...

CITY           SKY/WX    TMP DP  RH WIND       PRES   REMARKS
ALAMAGORDO     PTCLDY    75  50  41 CALM      30.03S
ALBUQUERQUE    CLOUDY    76  46  34 S10       30.10R
CANNON AFB     CLOUDY    76  52  43 S8        30.02S
CLOVIS         CLOUDY    75  52  43 S9        30.03S
HOLLOMAN AFB   PTCLDY    78  52  41 SE5       30.00S
ROSWELL        CLOUDY    83  46  27 S13       29.95S
RUIDOSO        PTCLDY    66  45  45 N5        30.22F
SANTA FE       MOCLDY    68  38  33 SW9       30.14R
TRUTH OR CONSE CLOUDY    68  56  65 W8        30.06F
TUCUMCARI      PTCLDY    80  50  34 S12       29.95S
$$

USA.gov is the U.S. government's official web portal to all federal, state and local government web resources and services.